Weather History for Kabul, Afghanistan

Change the Weather History Date:

Sunday, May 18, 2014

  Actual Average Record
Temperature  
Mean Temperature 60 °F -  
Max Temperature 68 °F 82 °F - ()
Min Temperature 51 °F 52 °F - ()
Degree Days  
Heating Degree Days 6    
Growing Degree Days 10 (Base 50)    
Moisture  
Dew Point 48 °F    
Average Humidity 71    
Maximum Humidity 94    
Minimum Humidity 49    
Precipitation  
Precipitation 0.00 in 0.01 in - ()
Sea Level Pressure  
Sea Level Pressure 30.13 in    
Wind  
Wind Speed 5 mph ()    
Max Wind Speed 14 mph    
Max Gust Speed -    
Visibility 5.3 miles    
Events Rain , Thunderstorm    
T = Trace of Precipitation, MM = Missing Value Source: Averaged Metar Reports

Daily Weather History Graph

Daily Weather History Graph

Search for Another Location

Airport:

Trip Planner

Search our weather history database for the weather conditions in past years. The results will help you decide how hot, cold, wet, or windy it might be!

Date:

Astronomy

May. 18, 2014 Rise Set
Actual Time 4:48 AM AFT 6:50 PM AFT
Civil Twilight 4:20 AM AFT 7:19 PM AFT
Nautical Twilight 3:46 AM AFT 7:53 PM AFT
Astronomical Twilight 3:09 AM AFT 8:29 PM AFT
Moon 10:21 PM AFT (5/18) 8:07 AM AFT (5/18)
Length of Visible Light 14h 58m
Length of Day
14h 02m
Waning Gibbous, 84% of the Moon is Illuminated
May 18
Waning Gibbous
May 21
Last Quarter
May 28
New
Jun 6
First Quarter
Jun 13
Full

Hourly Weather History & Observations

Time (AFT) Temp. Dew Point Humidity Pressure Visibility Wind Dir Wind Speed Gust Speed Precip Events Conditions
12:20 AM 51.8 °F 50.0 °F 94% 30.18 in 4.3 mi Variable 2.3 mph - N/A   Overcast
1:20 AM 53.6 °F 50.0 °F 88% 30.15 in 6.2 mi NNW 8.1 mph - N/A   Overcast
2:20 AM 51.8 °F 50.0 °F 94% 30.12 in 6.2 mi NNW 8.1 mph - N/A Rain Light Rain
3:20 AM 51.8 °F 48.2 °F 88% 30.12 in 6.2 mi Variable 2.3 mph - N/A Rain Light Rain
4:20 AM 51.8 °F 50.0 °F 94% 30.12 in 6.2 mi Calm Calm - N/A Rain Light Rain
5:20 AM 51.8 °F 48.2 °F 88% 30.15 in 6.2 mi West 3.5 mph - N/A   Mostly Cloudy
6:20 AM 53.6 °F 50.0 °F 88% 30.15 in 5.0 mi Variable 2.3 mph - N/A   Mostly Cloudy
7:20 AM 55.4 °F 48.2 °F 77% 30.15 in 5.0 mi East 3.5 mph - N/A   Mostly Cloudy
8:20 AM 57.2 °F 48.2 °F 72% 30.18 in 5.0 mi Variable 1.2 mph - N/A   Mostly Cloudy
9:20 AM 62.6 °F 48.2 °F 59% 30.18 in 4.3 mi SW 3.5 mph - N/A   Mostly Cloudy
10:20 AM 62.6 °F 50.0 °F 63% 30.18 in 5.0 mi NNW 3.5 mph - N/A   Mostly Cloudy
11:20 AM 62.6 °F 48.2 °F 59% 30.15 in 5.0 mi NNE 4.6 mph - N/A   Mostly Cloudy
12:20 PM 62.6 °F 48.2 °F 59% 30.12 in 5.0 mi North 4.6 mph - N/A   Mostly Cloudy
1:20 PM 68.0 °F 48.2 °F 49% 30.12 in 6.2 mi ENE 5.8 mph - N/A   Mostly Cloudy
1:50 PM 68.0 °F 50.0 °F 52% 30.12 in 6.2 mi NE 6.9 mph - N/A Thunderstorm Mostly Cloudy
2:20 PM 66.2 °F 50.0 °F 56% 30.09 in 6.2 mi NE 9.2 mph - N/A   Mostly Cloudy
2:30 PM 64.4 °F 48.2 °F 56% 30.09 in 6.2 mi East 11.5 mph - N/A Thunderstorm Mostly Cloudy
3:20 PM 62.6 °F 46.4 °F 55% 30.09 in 6.2 mi SE 9.2 mph - N/A Rain , Thunderstorm Light Rain Showers
4:20 PM 60.8 °F 50.0 °F 68% 30.09 in 5.6 mi West 11.5 mph - N/A Rain Light Rain Showers
5:20 PM 60.8 °F 50.0 °F 68% 30.09 in 6.2 mi West 9.2 mph - N/A   Overcast
6:20 PM 60.8 °F 44.6 °F 55% 30.09 in 6.2 mi South 4.6 mph - N/A   Mostly Cloudy
7:20 PM 57.2 °F 44.6 °F 63% 30.12 in 6.2 mi ESE 4.6 mph - N/A   Mostly Cloudy
8:20 PM 57.2 °F 48.2 °F 72% 30.12 in 5.0 mi ESE 3.5 mph - N/A   Mostly Cloudy
8:45 PM 57.2 °F 48.2 °F 72% 30.15 in 2.5 mi East 4.6 mph - N/A   Mostly Cloudy
9:20 PM 57.2 °F 48.2 °F 72% 30.15 in 2.5 mi SE 5.8 mph - N/A   Mostly Cloudy
10:20 PM 57.2 °F 48.2 °F 72% 30.15 in 3.1 mi NW 3.5 mph - N/A   Mostly Cloudy
11:20 PM 55.4 °F 46.4 °F 72% 30.15 in 5.0 mi North 13.8 mph - N/A   Mostly Cloudy